GW1690 Weather Reports


Display with metric or nautical units.
time (UTC)temp
F
wind
direction
speed
MPH
gust
MPH
rain 1hr
in
rain 24hr
in
rain mn
in
humidity
%
barometer
mb
20260503055024 45 26 2.0 3.0 0.00 0.00 0.00 78 1038.0
20260503054542 45 264 1.0 3.0 0.00 0.00 0.00 78 1038.3
20260503054044 45 21 1.0 3.0 0.00 0.00 0.00 79 1038.4
20260503053520 45 4 1.0 3.0 0.00 0.00 0.00 78 1037.9
20260503053024 46 266 1.0 2.0 0.00 0.00 0.00 78 1038.0
20260503052543 46 214 1.0 2.0 0.00 0.00 0.00 78 1037.8
20260503052023 46 216 1.0 2.0 0.00 0.00 0.00 78 1037.2
20260503051525 46 24 2.0 3.0 0.00 0.00 0.00 77 1036.0
20260503051025 46 335 1.0 3.0 0.00 0.00 0.00 77 1035.4
20260503050523 46 256 1.0 3.0 0.00 0.00 0.00 76 1035.3
20260503045520 46 351 1.0 3.0 0.00 0.00 0.00 74 1033.7
20260503045021 46 338 1.0 3.0 0.00 0.00 0.00 73 1033.7
20260503044520 46 232 1.0 3.0 0.00 0.00 0.00 74 1033.7
20260503044041 46 226 0.0 2.0 0.00 0.00 0.00 74 1033.7
20260503043541 46 221 0.0 2.0 0.00 0.00 0.00 74 1033.9
20260503043026 46 297 1.0 3.0 0.00 0.00 0.00 74 1034.0
20260503042522 47 250 0.0 2.0 0.00 0.00 0.00 71 1034.8
20260503042101 47 226 0.0 2.0 0.00 0.00 0.00 73 1034.2
20260503041521 47 3 1.0 3.0 0.00 0.00 0.00 72 1034.7
20260503041041 47 218 0.0 2.0 0.00 0.00 0.00 71 1035.5
20260503040521 47 8 1.0 3.0 0.00 0.00 0.00 70 1036.6
20260503040023 48 20 1.0 3.0 0.00 0.00 0.00 70 1036.4
20260503035522 48 14 1.0 3.0 0.00 0.00 0.00 69 1037.5
20260503035022 48 26 1.0 3.0 0.00 0.00 0.00 68 1038.3
20260503034522 48 20 2.0 3.0 0.00 0.00 0.00 68 1038.4
20260503034021 48 16 1.0 3.0 0.00 0.00 0.00 68 1038.3
20260503033522 48 4 1.0 3.0 0.00 0.00 0.00 67 1038.9
20260503033043 49 315 1.0 3.0 0.00 0.00 0.00 67 1039.0
20260503032523 49 222 0.0 2.0 0.00 0.00 0.00 67 1039.1
20260503032024 49 18 1.0 3.0 0.00 0.00 0.00 66 1039.1
20260503031523 49 23 2.0 3.0 0.00 0.00 0.00 65 1039.1
20260503031023 49 229 1.0 3.0 0.00 0.00 0.00 65 1038.9
20260503030542 49 325 2.0 3.0 0.00 0.00 0.00 63 1037.0
20260503030043 50 15 3.0 3.0 0.00 0.00 0.00 64 1037.6
20260503025520 50 244 2.0 3.0 0.00 0.00 0.00 65 1039.2
20260503025022 50 240 2.0 3.0 0.00 0.00 0.00 64 1038.4
20260503024520 50 229 3.0 3.0 0.00 0.00 0.00 62 1036.0
20260503024023 50 239 3.0 3.0 0.00 0.00 0.00 61 1034.3
20260503023523 50 276 3.0 3.0 0.00 0.00 0.00 61 1034.5
20260503023023 50 4 3.0 4.0 0.00 0.00 0.00 62 1036.4
20260503022522 51 355 3.0 4.0 0.00 0.00 0.00 62 1037.2
20260503022024 51 240 3.0 3.0 0.00 0.00 0.00 62 1037.7
20260503021523 51 237 3.0 3.0 0.00 0.00 0.00 61 1035.2
20260503021020 51 245 3.0 3.0 0.00 0.00 0.00 59 1032.5
20260503020540 52 243 3.0 3.0 0.00 0.00 0.00 60 1034.8
20260503020101 52 238 3.0 3.0 0.00 0.00 0.00 60 1034.6
20260503015521 52 239 3.0 3.0 0.00 0.00 0.00 58 1029.7
20260503015024 53 247 3.0 4.0 0.00 0.00 0.00 58 1030.7
20260503014524 53 240 3.0 3.0 0.00 0.00 0.00 55 1025.0
20260503014024 53 239 3.0 3.0 0.00 0.00 0.00 53 1022.3
20260503013603 54 251 3.0 4.0 0.00 0.00 0.00 52 1020.6
20260503013042 54 234 3.0 4.0 0.00 0.00 0.00 52 1020.4
20260503012523 54 238 3.0 4.0 0.00 0.00 0.00 51 1019.9
20260503012025 55 344 4.0 4.0 0.00 0.00 0.00 51 1019.8
20260503011524 55 6 3.0 4.0 0.00 0.00 0.00 50 1018.7
20260503011021 56 12 4.0 4.0 0.00 0.00 0.00 49 1018.2
20260503010542 56 259 1.0 4.0 0.00 0.00 0.00 49 1018.0
20260503010024 56 22 3.0 4.0 0.00 0.00 0.00 48 1017.4
20260503005522 57 30 4.0 5.0 0.00 0.00 0.00 46 1016.9
20260503005022 57 29 3.0 5.0 0.00 0.00 0.00 46 1016.6
20260503004522 57 30 3.0 5.0 0.00 0.00 0.00 45 1016.5
20260503004042 58 20 2.0 5.0 0.00 0.00 0.00 44 1016.2
20260503003542 58 256 2.0 6.0 0.00 0.00 0.00 44 1016.2
20260503003022 58 5 2.0 5.0 0.00 0.00 0.00 44 1016.3
20260503002522 58 299 4.0 6.0 0.00 0.00 0.00 43 1016.0
20260503002022 59 241 4.0 6.0 0.00 0.00 0.00 42 1015.9
20260503001524 59 258 5.0 7.0 0.00 0.00 0.00 43 1015.9
20260503001029 59 271 4.0 7.0 0.00 0.00 0.00 42 1015.9
20260503000524 59 325 5.0 7.0 0.00 0.00 0.00 42 1015.8
20260503000021 59 14 6.0 7.0 0.00 0.00 0.00 42 1015.8
20260502235519 60 17 6.0 7.0 0.00 0.00 0.00 42 1015.8
20260502235023 60 329 6.0 7.0 0.00 0.00 0.00 41 1015.7
20260502234523 60 264 5.0 8.0 0.00 0.00 0.00 41 1015.7
20260502234022 60 233 5.0 8.0 0.00 0.00 0.00 41 1015.6
20260502233523 60 219 2.0 6.0 0.00 0.00 0.00 41 1015.7
20260502233023 60 335 5.0 8.0 0.00 0.00 0.00 39 1015.5
20260502232523 60 336 6.0 8.0 0.00 0.00 0.00 39 1015.4
20260502232041 61 335 6.0 9.0 0.00 0.00 0.00 39 1015.5
20260502231521 61 350 5.0 9.0 0.00 0.00 0.00 40 1015.5
20260502231021 61 20 6.0 9.0 0.00 0.00 0.00 40 1015.6
20260502230520 61 18 7.0 9.0 0.00 0.00 0.00 40 1015.6
20260502230020 61 18 7.0 10.0 0.00 0.00 0.00 39 1015.5
20260502225521 61 11 7.0 9.0 0.00 0.00 0.00 39 1015.6
20260502225045 61 14 7.0 9.0 0.00 0.00 0.00 40 1015.6
20260502224526 61 357 6.0 9.0 0.00 0.00 0.00 39 1015.4
20260502224041 61 223 4.0 8.0 0.00 0.00 0.00 40 1015.5
20260502223521 62 216 3.0 7.0 0.00 0.00 0.00 39 1015.4
20260502223021 62 253 3.0 7.0 0.00 0.00 0.00 39 1015.4
20260502222521 62 270 4.0 8.0 0.00 0.00 0.00 40 1015.5
20260502222022 62 226 3.0 7.0 0.00 0.00 0.00 39 1015.4
20260502221522 62 221 2.0 6.0 0.00 0.00 0.00 39 1015.5
20260502221022 62 221 2.0 7.0 0.00 0.00 0.00 39 1015.5
20260502220522 62 219 3.0 7.0 0.00 0.00 0.00 39 1015.5
20260502220021 62 17 4.0 10.0 0.00 0.00 0.00 40 1015.5
20260502215520 62 350 6.0 9.0 0.00 0.00 0.00 40 1015.6
20260502215023 62 358 7.0 9.0 0.00 0.00 0.00 40 1015.6
20260502214602 61 5 6.0 10.0 0.00 0.00 0.00 41 1015.7
20260502214023 61 337 6.0 9.0 0.00 0.00 0.00 41 1015.8
20260502213523 60 266 6.0 9.0 0.00 0.00 0.00 44 1016.3
20260502213022 59 359 6.0 7.0 0.00 0.00 0.00 43 1016.1
20260502212522 60 1 6.0 7.0 0.00 0.00 0.00 43 1016.1
20260502212023 60 248 5.0 7.0 0.00 0.00 0.00 45 1016.5
20260502211520 60 328 5.0 7.0 0.00 0.00 0.00 44 1016.3
20260502211023 60 359 5.0 7.0 0.00 0.00 0.00 43 1016.2
20260502210520 61 277 3.0 7.0 0.00 0.00 0.00 42 1016.0
20260502210039 60 283 5.0 7.0 0.00 0.00 0.00 40 1015.8
20260502205520 60 12 5.0 8.0 0.00 0.00 0.00 41 1016.0
20260502205023 60 313 6.0 8.0 0.00 0.00 0.00 43 1016.3
20260502204523 60 360 5.0 7.0 0.00 0.00 0.00 42 1016.2
20260502204025 60 355 6.0 7.0 0.00 0.00 0.00 43 1016.2
20260502203521 60 317 5.0 7.0 0.00 0.00 0.00 42 1016.1
20260502203021 60 283 5.0 7.0 0.00 0.00 0.00 42 1016.2
20260502202521 60 7 5.0 7.0 0.00 0.00 0.00 41 1016.1
20260502202023 60 331 6.0 8.0 0.00 0.00 0.00 41 1016.1
20260502201520 60 333 6.0 8.0 0.00 0.00 0.00 41 1016.2
20260502201041 61 340 7.0 9.0 0.00 0.00 0.00 42 1016.2
20260502200540 61 349 6.0 9.0 0.00 0.00 0.00 42 1016.3
20260502200020 61 240 4.0 8.0 0.00 0.00 0.00 42 1016.5
20260502195541 61 354 5.0 10.0 0.00 0.00 0.00 41 1016.4
20260502195022 61 328 5.0 9.0 0.00 0.00 0.00 41 1016.5
20260502194522 61 286 5.0 11.0 0.00 0.00 0.00 45 1017.8
20260502194021 61 333 7.0 10.0 0.00 0.00 0.00 43 1016.6
20260502193521 61 325 6.0 8.0 0.00 0.00 0.00 42 1016.5
20260502193021 61 10 7.0 11.0 0.00 0.00 0.00 42 1016.6
20260502192521 61 356 7.0 9.0 0.00 0.00 0.00 42 1016.6
20260502192021 61 282 7.0 10.0 0.00 0.00 0.00 43 1016.7
20260502191521 61 296 6.0 11.0 0.00 0.00 0.00 42 1016.5
20260502191022 61 333 8.0 11.0 0.00 0.00 0.00 42 1016.7
20260502190521 61 344 7.0 11.0 0.00 0.00 0.00 43 1016.7
20260502190025 62 342 7.0 10.0 0.00 0.00 0.00 43 1016.7
20260502185522 62 3 6.0 11.0 0.00 0.00 0.00 43 1016.8
20260502185042 63 322 6.0 9.0 0.00 0.00 0.00 42 1016.4
20260502184522 64 15 7.0 12.0 0.00 0.00 0.00 40 1016.2
20260502184022 63 11 6.0 11.0 0.00 0.00 0.00 42 1016.4
20260502183523 63 0 7.0 10.0 0.00 0.00 0.00 41 1016.4
20260502183023 63 348 6.0 10.0 0.00 0.00 0.00 41 1016.4
20260502182523 63 360 5.0 10.0 0.00 0.00 0.00 39 1016.3
20260502182022 62 7 6.0 10.0 0.00 0.00 0.00 41 1016.4
20260502181523 61 320 5.0 9.0 0.00 0.00 0.00 41 1016.4
20260502181043 61 337 5.0 8.0 0.00 0.00 0.00 41 1016.4
20260502180520 60 332 6.0 8.0 0.00 0.00 0.00 41 1016.3
20260502170521 59 357 5.0 7.0 0.00 0.00 0.00 44 1017.1
20260502164023 57 14 4.0 6.0 0.00 0.00 0.00 59 1033.0
20260502163522 58 14 3.0 5.0 0.00 0.00 0.00 56 1028.4
20260502163021 58 355 4.0 6.0 0.00 0.00 0.00 51 1020.9
20260502162521 59 355 5.0 7.0 0.00 0.00 0.00 47 1017.3
20260502162022 60 351 5.0 7.0 0.00 0.00 0.00 47 1017.5
20260502161524 60 358 5.0 7.0 0.00 0.00 0.00 48 1017.9
20260502161025 60 350 6.0 9.0 0.00 0.00 0.00 50 1019.2
20260502160522 60 9 6.0 8.0 0.00 0.00 0.00 49 1018.5
20260502152043 62 351 5.0 8.0 0.00 0.00 0.00 51 1020.2
20260502151520 61 2 5.0 9.0 0.00 0.00 0.00 52 1019.8
20260502151021 60 314 5.0 9.0 0.00 0.00 0.00 53 1021.4
20260502150520 60 343 5.0 8.0 0.00 0.00 0.00 54 1023.0
20260502130525 51 3 4.0 6.0 0.00 0.00 0.00 76 1035.1
20260502123529 49 358 4.0 4.0 0.00 0.00 0.00 80 1041.6
20260502123032 48 353 3.0 4.0 0.00 0.00 0.00 81 1042.9
20260502122530 48 12 3.0 4.0 0.00 0.00 0.00 82 1043.6
20260502122029 48 11 3.0 4.0 0.00 0.00 0.00 82 1044.3
20260502121550 47 3 3.0 3.0 0.00 0.00 0.00 83 1045.0
20260502121031 47 8 3.0 4.0 0.00 0.00 0.00 83 1045.3
20260502120532 47 16 3.0 4.0 0.00 0.00 0.00 83 1045.9
20260502115552 47 11 3.0 4.0 0.00 0.00 0.00 83 1046.2
20260502115031 47 10 3.0 3.0 0.00 0.00 0.00 84 1046.3
20260502114534 47 11 3.0 3.0 0.00 0.00 0.00 84 1046.0
20260502114030 47 4 3.0 3.0 0.00 0.00 0.00 84 1045.7
20260502113531 47 16 3.0 3.0 0.00 0.00 0.00 83 1045.1
20260502113030 47 16 3.0 3.0 0.00 0.00 0.00 83 1044.9
20260502112553 47 13 3.0 3.0 0.00 0.00 0.00 83 1044.8
20260502112031 47 8 3.0 3.0 0.00 0.00 0.00 83 1044.2
20260502111532 47 13 3.0 3.0 0.00 0.00 0.00 82 1043.8
20260502111030 47 12 3.0 3.0 0.00 0.00 0.00 82 1043.9
20260502110532 47 9 3.0 3.0 0.00 0.00 0.00 82 1043.4
20260502110031 47 10 3.0 3.0 0.00 0.00 0.00 82 1043.0
20260502105531 47 16 3.0 3.0 0.00 0.00 0.00 82 1043.2
20260502105031 47 12 3.0 3.0 0.00 0.00 0.00 82 1042.5
20260502104552 47 11 3.0 3.0 0.00 0.00 0.00 81 1042.2
20260502104052 47 12 3.0 3.0 0.00 0.00 0.00 81 1042.1
20260502103531 47 16 3.0 3.0 0.00 0.00 0.00 81 1041.6
20260502103032 48 16 2.0 3.0 0.00 0.00 0.00 81 1040.5
20260502102552 48 13 1.0 3.0 0.00 0.00 0.00 80 1039.6
20260502102032 48 16 2.0 3.0 0.00 0.00 0.00 80 1038.6
20260502101033 49 17 3.0 3.0 0.00 0.00 0.00 78 1035.8
20260502100534 49 8 1.0 3.0 0.00 0.00 0.00 77 1034.4
20260502091521 51 358 4.0 4.0 0.00 0.00 0.00 71 1032.7
20260502091020 51 350 4.0 4.0 0.00 0.00 0.00 71 1033.1
20260502090521 51 263 3.0 4.0 0.00 0.00 0.00 70 1033.5
20260502071522 53 345 4.0 5.0 0.00 0.00 0.00 64 1037.3
20260502071042 53 291 3.0 4.0 0.00 0.00 0.00 64 1036.9
20260502070523 53 288 3.0 5.0 0.00 0.00 0.00 63 1036.5
20260502070023 53 326 4.0 4.0 0.00 0.00 0.00 63 1036.1
20260502065523 53 298 3.0 5.0 0.00 0.00 0.00 63 1036.0
20260502065022 53 308 4.0 6.0 0.00 0.00 0.00 62 1035.5
20260502064524 53 11 4.0 5.0 0.00 0.00 0.00 61 1034.3
20260502064043 53 1 4.0 5.0 0.00 0.00 0.00 62 1035.2